KO4IEJ Weather Reports


Display with metric or nautical units.
time (UTC)temp
F
wind
direction
speed
MPH
gust
MPH
rain 1hr
in
rain 24hr
in
rain mn
in
humidity
%
barometer
mb
20260510224603 60 205 1.0 4.0 0.00 0.00 0.00 37 1026.3
20260510223116 60 214 2.0 6.0 0.00 0.00 0.00 38 1026.4
20260510221601 60 203 1.0 7.0 0.00 0.00 0.00 35 1026.7
20260510220052 60 259 2.0 6.0 0.00 0.00 0.00 34 1026.7
20260510214550 60 103 1.0 6.0 0.00 0.00 0.00 37 1026.7
20260510213106 60 213 2.0 7.0 0.00 0.00 0.00 34 1026.7
20260510211634 60 131 2.0 7.0 0.00 0.00 0.00 39 1026.7
20260510210054 60 328 2.0 5.0 0.00 0.00 0.00 38 1026.7
20260510204555 61 255 1.0 5.0 0.00 0.00 0.00 40 1026.7
20260510203052 62 257 1.0 7.0 0.00 0.00 0.00 37 1027.0
20260510201556 62 261 1.0 6.0 0.00 0.00 0.00 37 1027.0
20260510200058 62 239 1.0 5.0 0.00 0.00 0.00 37 1027.2
20260510194604 60 250 2.0 7.0 0.00 0.00 0.00 40 1027.3
20260510193055 59 260 2.0 8.0 0.00 0.00 0.00 44 1027.3
20260510191618 59 238 2.0 9.0 0.00 0.00 0.00 48 1027.4
20260510190106 58 234 1.0 5.0 0.00 0.00 0.00 52 1027.4
20260510184552 56 229 3.0 11.0 0.00 0.00 0.00 53 1027.6
20260510183101 57 212 2.0 6.0 0.00 0.00 0.00 53 1027.7
20260510181555 54 285 2.0 7.0 0.00 0.00 0.00 57 1027.6
20260510180103 54 214 2.0 5.0 0.00 0.00 0.00 56 1027.8
20260510174606 52 230 2.0 6.0 0.00 0.00 0.00 60 1027.9
20260510173100 52 247 2.0 4.0 0.00 0.00 0.00 63 1028.0
20260510171554 51 243 1.0 6.0 0.00 0.00 0.00 64 1027.9
20260510170114 49 360 1.0 4.0 0.00 0.00 0.00 64 1027.9
20260510164623 49 120 1.0 5.0 0.00 0.00 0.00 66 1028.0
20260510163101 47 205 0.0 4.0 0.00 0.00 0.00 71 1028.0
20260510161551 47 132 0.0 2.0 0.00 0.00 0.00 69 1028.1
20260510160105 46 86 1.0 3.0 0.00 0.00 0.00 71 1028.1
20260510154559 46 241 1.0 4.0 0.00 0.00 0.00 73 1028.0
20260510153054 46 197 0.0 2.0 0.00 0.00 0.00 74 1028.0
20260510151555 44 127 0.0 1.0 0.00 0.00 0.00 77 1028.2
20260510150054 43 0 0.0 2.0 0.00 0.00 0.00 79 1028.0
20260510144607 43 243 0.0 1.0 0.00 0.00 0.00 83 1027.8
20260510143056 41 0 0.0 1.0 0.00 0.00 0.00 83 1027.4
20260510141555 40 252 0.0 1.0 0.00 0.00 0.00 89 1027.6
20260510140056 39 0 0.0 1.0 0.00 0.00 0.00 91 1027.6
20260510134553 38 256 0.0 2.0 0.00 0.00 0.00 90 1027.5
20260510133056 39 263 0.0 2.0 0.00 0.00 0.00 90 1027.6
20260510131552 39 233 0.0 1.0 0.00 0.00 0.00 89 1027.4
20260510130052 39 0 0.0 1.0 0.00 0.00 0.00 90 1027.0
20260510124601 39 0 0.0 0.0 0.00 0.00 0.00 90 1026.7
20260510123051 39 0 0.0 0.0 0.00 0.00 0.00 89 1026.6
20260510121553 39 0 0.0 0.0 0.00 0.00 0.00 89 1026.5
20260510120053 39 0 0.0 1.0 0.00 0.00 0.00 88 1026.5
20260510114554 39 0 0.0 0.0 0.00 0.00 0.00 87 1026.4
20260510113055 39 0 0.0 0.0 0.00 0.00 0.00 87 1026.4
20260510111549 40 0 0.0 0.0 0.00 0.00 0.00 86 1026.4
20260510110054 40 0 0.0 1.0 0.00 0.00 0.00 85 1026.3
20260510104602 40 0 0.0 1.0 0.00 0.00 0.00 85 1026.2
20260510103056 40 279 0.0 3.0 0.00 0.00 0.00 85 1026.2
20260510101551 40 285 1.0 3.0 0.00 0.00 0.00 86 1026.3
20260510100053 40 276 1.0 4.0 0.00 0.00 0.00 85 1026.4
20260510094601 40 0 0.0 1.0 0.00 0.00 0.00 85 1026.3
20260510093112 40 0 0.0 2.0 0.00 0.00 0.00 85 1026.2
20260510091554 40 0 0.0 1.0 0.00 0.00 0.00 84 1026.0
20260510090110 41 0 0.0 1.0 0.00 0.00 0.00 80 1025.7
20260510084601 41 0 0.0 1.0 0.00 0.00 0.00 79 1025.4
20260510083100 41 0 0.0 1.0 0.00 0.00 0.00 79 1025.0
20260510081557 41 0 0.0 0.0 0.00 0.00 0.00 79 1024.8
20260510080056 41 0 0.0 0.0 0.00 0.00 0.00 79 1024.7
20260510074555 42 0 0.0 0.0 0.00 0.00 0.00 78 1024.7
20260510073054 42 0 0.0 0.0 0.00 0.00 0.00 77 1024.7
20260510071557 42 0 0.0 0.0 0.00 0.00 0.00 76 1024.7
20260510070054 42 0 0.0 0.0 0.00 0.00 0.00 75 1024.9
20260510064549 43 0 0.0 0.0 0.00 0.00 0.00 76 1025.0
20260510063050 42 0 0.0 0.0 0.00 0.00 0.00 75 1025.0
20260510061554 43 0 0.0 1.0 0.00 0.00 0.00 72 1024.9
20260510060058 44 157 0.0 4.0 0.00 0.00 0.00 69 1024.9
20260510054553 44 0 0.0 1.0 0.00 0.00 0.00 67 1024.6
20260510053102 46 0 1.0 6.0 0.00 0.00 0.00 63 1024.4
20260510051558 45 0 0.0 2.0 0.00 0.00 0.00 57 1024.0
20260510050054 45 29 1.0 2.0 0.00 0.00 0.00 57 1023.1
20260510044557 43 0 0.0 1.0 0.00 0.00 0.00 59 1022.4
20260510043103 44 16 1.0 2.0 0.00 0.00 0.00 58 1021.9
20260510041555 45 345 0.0 1.0 0.00 0.00 0.00 56 1021.8
20260510040058 46 0 0.0 1.0 0.00 0.00 0.00 54 1021.6
20260510034556 46 3 0.0 1.0 0.00 0.00 0.00 54 1021.6
20260510033107 46 0 0.0 1.0 0.00 0.00 0.00 53 1021.5
20260510031556 47 356 0.0 1.0 0.00 0.00 0.00 53 1021.3
20260510030053 48 134 0.0 1.0 0.00 0.00 0.00 53 1021.1
20260510024553 49 0 0.0 1.0 0.00 0.00 0.00 49 1020.9
20260510023057 49 0 0.0 1.0 0.00 0.00 0.00 50 1020.6
20260510021558 50 134 0.0 1.0 0.00 0.00 0.00 49 1020.5
20260510020057 51 134 0.0 1.0 0.00 0.00 0.00 49 1020.4
20260510014553 53 0 0.0 1.0 0.00 0.00 0.00 44 1020.3
20260510013053 55 0 0.0 3.0 0.00 0.00 0.00 34 1020.2
20260510011553 57 330 0.0 1.0 0.00 0.00 0.00 36 1019.9
20260510010053 58 0 0.0 2.0 0.00 0.00 0.00 34 1019.4
20260510004559 60 0 0.0 3.0 0.00 0.00 0.00 30 1019.4
20260510003056 62 0 0.0 2.0 0.00 0.00 0.00 24 1019.3
20260510001551 62 70 1.0 4.0 0.00 0.00 0.00 23 1019.0
20260510000058 63 0 0.0 1.0 0.00 0.00 0.00 20 1018.9
20260509234553 63 0 1.0 6.0 0.00 0.00 0.00 18 1018.7
20260509233056 63 103 1.0 6.0 0.00 0.00 0.00 18 1018.6
20260509231552 64 0 1.0 3.0 0.00 0.00 0.00 20 1018.4
20260509230055 64 0 0.0 1.0 0.00 0.00 0.00 24 1018.4